Weather History for Hastings, NE

Change the Weather History Date:

Monday, February 10, 2014

  Actual Average Record
Temperature  
Mean Temperature 10 °F 29 °F  
Max Temperature 13 °F 39 °F 73 °F (1999)
Min Temperature 7 °F 18 °F -13 °F (1933)
Degree Days  
Heating Degree Days 55 36  
Month to date heating degree days 554 372  
Since 1 July heating degree days 4276 4021  
Cooling Degree Days 0 0  
Month to date cooling degree days 0 0  
Year to date cooling degree days 0 0  
Moisture  
Dew Point 3 °F    
Average Humidity 73    
Maximum Humidity 80    
Minimum Humidity 66    
Precipitation  
Precipitation T in 0.02 in 0.42 in (1960)
Month to date precipitation 0.19 0.17  
Year to date precipitation 0.56 0.58  
Snow  
Snow T in 0.30 in 3.00 in (1960)
Month to date snowfall 5.3 2.6  
Since 1 July snowfall 16.1 18.5  
Snow Depth 3.00 in    
Sea Level Pressure  
Sea Level Pressure 30.49 in    
Wind  
Wind Speed 6 mph (SE)    
Max Wind Speed 10 mph    
Max Gust Speed 13 mph    
Visibility 10 miles    
Events      
T = Trace of Precipitation, MM = Missing Value Source: NWS Daily Summary

Daily Weather History Graph

Daily Weather History Graph

Search for Another Location

Airport:

Trip Planner

Search our weather history database for the weather conditions in past years. The results will help you decide how hot, cold, wet, or windy it might be!

Date:

Astronomy

Feb. 10, 2014 Rise Set
Actual Time 7:33 AM CST 6:02 PM CST
Civil Twilight 7:05 AM CST 6:31 PM CST
Nautical Twilight 6:33 AM CST 7:03 PM CST
Astronomical Twilight 6:01 AM CST 7:35 PM CST
Moon 2:32 PM CST (2/10) 4:28 AM CST (2/10)
Length of Visible Light 11h 25m
Length of Day
10h 29m
Waxing Gibbous, 85% of the Moon is Illuminated
Feb 10
Waxing Gibbous
Feb 14
Full
Feb 22
Last Quarter
Mar 1
New
Mar 8
First Quarter

Hourly Weather History & Observations

Time (CST) Temp. Windchill Dew Point Humidity Pressure Visibility Wind Dir Wind Speed Gust Speed Precip Events Conditions
12:53 AM 10.0 °F -0.9 °F 1.0 °F 67% 30.51 in 10.0 mi NNE 6.9 mph - N/A   Overcast
1:53 AM 9.0 °F -4.2 °F 1.9 °F 73% 30.51 in 10.0 mi NE 9.2 mph - N/A   Overcast
2:53 AM 8.1 °F -4.3 °F 1.0 °F 73% 30.50 in 10.0 mi ENE 8.1 mph - N/A   Overcast
3:53 AM 8.1 °F -2.0 °F -0.0 °F 70% 30.51 in 10.0 mi ENE 5.8 mph - N/A   Overcast
4:53 AM 8.1 °F -2.0 °F -0.0 °F 70% 30.50 in 10.0 mi ENE 5.8 mph - N/A   Overcast
5:53 AM 8.1 °F -0.5 °F 1.0 °F 73% 30.50 in 10.0 mi ENE 4.6 mph - N/A   Overcast
6:53 AM 7.0 °F -3.3 °F -0.0 °F 73% 30.51 in 10.0 mi ENE 5.8 mph - N/A   Overcast
7:53 AM 8.1 °F -0.5 °F -0.0 °F 70% 30.51 in 10.0 mi East 4.6 mph - N/A   Overcast
8:53 AM 8.1 °F -0.5 °F 1.0 °F 73% 30.53 in 10.0 mi ENE 4.6 mph - N/A   Overcast
9:53 AM 8.1 °F -2.0 °F 1.9 °F 76% 30.53 in 10.0 mi SSE 5.8 mph - N/A   Overcast
10:53 AM 9.0 °F 0.6 °F 1.9 °F 73% 30.52 in 10.0 mi South 4.6 mph - N/A   Overcast
11:53 AM 10.9 °F 0.2 °F 3.0 °F 70% 30.49 in 10.0 mi SSE 6.9 mph - N/A   Overcast
12:53 PM 12.0 °F 1.5 °F 3.9 °F 70% 30.47 in 10.0 mi SSE 6.9 mph - N/A   Overcast
1:53 PM 12.0 °F 4.1 °F 3.0 °F 67% 30.46 in 10.0 mi South 4.6 mph - N/A   Overcast
2:53 PM 12.0 °F 1.5 °F 3.0 °F 67% 30.45 in 10.0 mi South 6.9 mph - N/A   Overcast
3:53 PM 12.0 °F 5.9 °F 3.9 °F 70% 30.46 in 10.0 mi Variable 3.5 mph - N/A   Overcast
4:53 PM 12.0 °F 5.9 °F 3.9 °F 70% 30.47 in 10.0 mi South 3.5 mph - N/A   Overcast
5:53 PM 12.0 °F 2.7 °F 3.9 °F 70% 30.48 in 10.0 mi SE 5.8 mph - N/A   Overcast
6:53 PM 12.0 °F 2.7 °F 5.0 °F 73% 30.49 in 9.0 mi SSE 5.8 mph - N/A   Overcast
7:53 PM 12.0 °F 2.7 °F 5.0 °F 73% 30.50 in 10.0 mi SSE 5.8 mph - N/A   Overcast
8:53 PM 12.0 °F 2.7 °F 5.0 °F 73% 30.48 in 10.0 mi SSE 5.8 mph - N/A   Overcast
9:53 PM 10.9 °F -0.8 °F 3.9 °F 73% 30.46 in 10.0 mi SSE 8.1 mph - N/A   Overcast
10:53 PM 9.0 °F 0.6 °F 3.9 °F 80% 30.46 in 10.0 mi South 4.6 mph - N/A   Mostly Cloudy
11:53 PM 10.0 °F 1.8 °F 3.9 °F 76% 30.45 in 10.0 mi South 4.6 mph - N/A   Mostly Cloudy